LVMDE SANE-SABE

Flight info

Callsign LVMDE
Flight time 1h 9m
Altitude 45000
Route DIKOR2C DIKOR UL550 ROS UT672 MULTA UW24 SNT SNT9R
Aircraft GLF6/M-SBDE2E3FGHIJ1J4J5P2RWXYZ/LB2D1G1

Departure

Time 2026-05-07 18:12
Airport Vicecomodoro Angel D. La Paz Aragonés Airport (SANE)

Arrival

Time 2026-05-07 19:21
Airport Aeroparque Jorge Newbery (SABE)
Time Latitude Longitude Altitude Speed Heading
2026-05-07 17:59 -27.75646 -64.29926 664 ft 0 kts
2026-05-07 18:10 -27.75645 -64.29926 664 ft 0 kts
2026-05-07 18:10 -27.75636 -64.29936 664 ft 2 kts 302°
2026-05-07 18:10 -27.75630 -64.29967 664 ft 4 kts 279°
2026-05-07 18:10 -27.75623 -64.29995 664 ft 3 kts 294°
2026-05-07 18:11 -27.75612 -64.30022 664 ft 4 kts 295°
2026-05-07 18:11 -27.75602 -64.30045 664 ft 5 kts 295°
2026-05-07 18:11 -27.75576 -64.30112 664 ft 8 kts 292°
2026-05-07 18:11 -27.75549 -64.30183 664 ft 11 kts 293°
2026-05-07 18:12 -27.75517 -64.30273 664 ft 13 kts 294°
2026-05-07 18:12 -27.75503 -64.30351 664 ft 15 kts 249°
2026-05-07 18:12 -27.75825 -64.30560 664 ft 117 kts 208°
2026-05-07 18:12 -27.76799 -64.31142 1335 ft 184 kts 207°
2026-05-07 18:13 -27.77924 -64.31805 2794 ft 199 kts 208°
2026-05-07 18:13 -27.79220 -64.32573 3901 ft 235 kts 210°
2026-05-07 18:13 -27.80781 -64.33457 4966 ft 268 kts 194°
2026-05-07 18:13 -27.82606 -64.33514 6598 ft 270 kts 166°
2026-05-07 18:14 -27.84423 -64.33021 8097 ft 283 kts 159°
2026-05-07 18:14 -27.86326 -64.32343 9440 ft 300 kts 156°
2026-05-07 18:14 -27.88310 -64.31567 10564 ft 325 kts 156°
2026-05-07 18:14 -27.90652 -64.30615 10726 ft 380 kts 157°
2026-05-07 18:15 -27.93165 -64.29591 12183 ft 387 kts 158°
2026-05-07 18:15 -27.95704 -64.28548 13503 ft 398 kts 158°
2026-05-07 18:15 -27.98316 -64.27475 14755 ft 409 kts 159°
2026-05-07 18:15 -28.00998 -64.26369 16044 ft 417 kts 159°
2026-05-07 18:16 -28.03760 -64.25230 17279 ft 427 kts 159°
2026-05-07 18:16 -28.06555 -64.24077 18555 ft 436 kts 160°
2026-05-07 18:16 -28.09395 -64.22904 19788 ft 445 kts 160°
2026-05-07 18:16 -28.12344 -64.21685 21037 ft 454 kts 161°
2026-05-07 18:17 -28.15300 -64.20463 22282 ft 462 kts 161°
2026-05-07 18:17 -28.18330 -64.19209 23517 ft 470 kts 162°
2026-05-07 18:17 -28.21419 -64.17931 24664 ft 478 kts 162°
2026-05-07 18:17 -28.24521 -64.16627 25756 ft 485 kts 160°
2026-05-07 18:18 -28.27567 -64.14864 26746 ft 495 kts 154°
2026-05-07 18:18 -28.30557 -64.12938 27766 ft 502 kts 152°
2026-05-07 18:18 -28.33575 -64.10896 28772 ft 509 kts 152°
2026-05-07 18:18 -28.36632 -64.08812 29682 ft 516 kts 153°
2026-05-07 18:19 -28.39717 -64.06708 30592 ft 522 kts 153°
2026-05-07 18:19 -28.42806 -64.04597 31598 ft 523 kts 153°
2026-05-07 18:19 -28.45883 -64.02492 32879 ft 517 kts 154°
2026-05-07 18:19 -28.48947 -64.00397 34042 ft 512 kts 155°
2026-05-07 18:20 -28.51989 -63.98320 35083 ft 509 kts 154°
2026-05-07 18:20 -28.55033 -63.96236 36019 ft 508 kts 155°
2026-05-07 18:20 -28.58012 -63.94195 36951 ft 505 kts 155°
2026-05-07 18:20 -28.61041 -63.92120 37708 ft 507 kts 155°
2026-05-07 18:21 -28.64031 -63.90068 38449 ft 507 kts 154°
2026-05-07 18:21 -28.67033 -63.88006 39241 ft 506 kts 155°
2026-05-07 18:21 -28.70073 -63.85919 39969 ft 506 kts 155°
2026-05-07 18:21 -28.73076 -63.83854 40613 ft 507 kts 154°
2026-05-07 18:22 -28.76063 -63.81799 41243 ft 508 kts 154°
2026-05-07 18:22 -28.78090 -63.80404 41691 ft 507 kts 155°
2026-05-07 18:22 -28.82071 -63.77651 42593 ft 506 kts 154°
2026-05-07 18:22 -28.85071 -63.75568 43165 ft 506 kts 154°
2026-05-07 18:23 -28.88070 -63.73483 43696 ft 507 kts 154°
2026-05-07 18:23 -28.91091 -63.71381 44238 ft 507 kts 154°
2026-05-07 18:23 -28.94097 -63.69287 44776 ft 507 kts 154°
2026-05-07 18:23 -28.97149 -63.67164 44939 ft 516 kts 154°
2026-05-07 18:24 -29.00239 -63.65009 44958 ft 528 kts 154°
2026-05-07 18:24 -29.06558 -63.60596 44951 ft 538 kts 154°
2026-05-07 18:25 -29.12942 -63.56132 44942 ft 536 kts 155°
2026-05-07 18:25 -29.19240 -63.51725 44945 ft 535 kts 155°
2026-05-07 18:26 -29.25569 -63.47287 44946 ft 535 kts 155°
2026-05-07 18:26 -29.31914 -63.42831 44947 ft 535 kts 155°
2026-05-07 18:27 -29.38244 -63.38380 44948 ft 535 kts 155°
2026-05-07 18:27 -29.44594 -63.33908 44937 ft 536 kts 154°
2026-05-07 18:28 -29.50916 -63.29432 44916 ft 536 kts 154°
2026-05-07 18:28 -29.57257 -63.24932 44896 ft 536 kts 154°
2026-05-07 18:29 -29.63584 -63.20436 44882 ft 536 kts 154°
2026-05-07 18:29 -29.69915 -63.15930 44883 ft 536 kts 154°
2026-05-07 18:30 -29.76242 -63.11420 44884 ft 536 kts 154°
2026-05-07 18:30 -29.82581 -63.06895 44885 ft 537 kts 154°
2026-05-07 18:31 -29.88875 -63.02395 44886 ft 538 kts 154°
2026-05-07 18:31 -29.95255 -62.97827 44887 ft 539 kts 154°
2026-05-07 18:32 -30.01592 -62.93283 44888 ft 539 kts 154°
2026-05-07 18:32 -30.07955 -62.88713 44889 ft 540 kts 154°
2026-05-07 18:33 -30.14342 -62.84119 44888 ft 541 kts 154°
2026-05-07 18:33 -30.20742 -62.79507 44888 ft 540 kts 154°
2026-05-07 18:34 -30.27120 -62.74905 44887 ft 540 kts 154°
2026-05-07 18:34 -30.33467 -62.70319 44889 ft 541 kts 154°
2026-05-07 18:35 -30.39835 -62.65711 44888 ft 539 kts 154°
2026-05-07 18:35 -30.46160 -62.61130 44891 ft 541 kts 154°
2026-05-07 18:36 -30.52533 -62.56505 44894 ft 540 kts 154°
2026-05-07 18:36 -30.58888 -62.51887 44889 ft 540 kts 154°
2026-05-07 18:37 -30.65226 -62.47274 44846 ft 540 kts 154°
2026-05-07 18:37 -30.71626 -62.42609 44777 ft 540 kts 154°
2026-05-07 18:38 -30.77991 -62.37962 44732 ft 539 kts 154°
2026-05-07 18:38 -30.84346 -62.33350 44718 ft 541 kts 154°
2026-05-07 18:39 -30.90731 -62.28709 44716 ft 540 kts 154°
2026-05-07 18:39 -30.97086 -62.24083 44720 ft 541 kts 154°
2026-05-07 18:40 -31.03441 -62.19449 44722 ft 542 kts 153°
2026-05-07 18:40 -31.09825 -62.14791 44724 ft 542 kts 153°
2026-05-07 18:41 -31.16188 -62.10141 44719 ft 542 kts 153°
2026-05-07 18:41 -31.22541 -62.05465 44720 ft 542 kts 153°
2026-05-07 18:42 -31.28920 -62.00731 44721 ft 542 kts 153°
2026-05-07 18:42 -31.35282 -61.96001 44722 ft 542 kts 153°
2026-05-07 18:43 -31.41614 -61.91286 44723 ft 542 kts 153°
2026-05-07 18:43 -31.47945 -61.86565 44724 ft 542 kts 153°
2026-05-07 18:44 -31.54297 -61.81819 44726 ft 542 kts 153°
2026-05-07 18:44 -31.60621 -61.77087 44727 ft 542 kts 153°
2026-05-07 18:45 -31.67012 -61.72297 44728 ft 542 kts 153°
2026-05-07 18:45 -31.73341 -61.67545 44729 ft 542 kts 153°
2026-05-07 18:46 -31.79696 -61.62766 44730 ft 542 kts 153°
2026-05-07 18:46 -31.85999 -61.58019 44731 ft 542 kts 153°
2026-05-07 18:47 -31.92372 -61.53210 44732 ft 542 kts 153°
2026-05-07 18:47 -31.98681 -61.48442 44734 ft 542 kts 153°
2026-05-07 18:48 -32.05022 -61.43642 44735 ft 542 kts 153°
2026-05-07 18:48 -32.11371 -61.38829 44732 ft 542 kts 153°
2026-05-07 18:49 -32.17674 -61.34043 44722 ft 543 kts 152°
2026-05-07 18:49 -32.24026 -61.29210 44716 ft 543 kts 152°
2026-05-07 18:50 -32.30364 -61.24380 44717 ft 543 kts 152°
2026-05-07 18:50 -32.36648 -61.19583 44718 ft 543 kts 152°
2026-05-07 18:51 -32.42984 -61.14738 44720 ft 545 kts 153°
2026-05-07 18:51 -32.49325 -61.09882 44721 ft 547 kts 153°
2026-05-07 18:52 -32.55688 -61.05000 44722 ft 548 kts 153°
2026-05-07 18:52 -32.62130 -61.00048 44723 ft 550 kts 154°
2026-05-07 18:53 -32.68555 -60.95102 44725 ft 551 kts 154°
2026-05-07 18:53 -32.74950 -60.90171 44726 ft 551 kts 154°
2026-05-07 18:54 -32.81386 -60.85199 44727 ft 551 kts 154°
2026-05-07 18:54 -32.87772 -60.80256 44729 ft 551 kts 154°
2026-05-07 18:55 -32.94286 -60.75531 44733 ft 548 kts 157°
2026-05-07 18:55 -33.00755 -60.71076 44731 ft 544 kts 156°
2026-05-07 18:56 -33.07111 -60.66685 44730 ft 536 kts 156°
2026-05-07 18:56 -33.13505 -60.62260 44724 ft 530 kts 155°
2026-05-07 18:57 -33.19868 -60.57849 44727 ft 531 kts 155°
2026-05-07 18:57 -33.26224 -60.53435 44727 ft 531 kts 155°
2026-05-07 18:57 -33.29431 -60.51205 44448 ft 527 kts 155°
2026-05-07 18:58 -33.32555 -60.49030 43299 ft 519 kts 155°
2026-05-07 18:58 -33.35636 -60.46884 42204 ft 510 kts 155°
2026-05-07 18:58 -33.38672 -60.44770 41123 ft 508 kts 155°
2026-05-07 18:58 -33.41695 -60.42662 40152 ft 508 kts 155°
2026-05-07 18:59 -33.44738 -60.40538 39496 ft 509 kts 155°
2026-05-07 18:59 -33.47770 -60.38420 38913 ft 511 kts 155°
2026-05-07 18:59 -33.50729 -60.36351 38361 ft 512 kts 155°
2026-05-07 18:59 -33.53810 -60.34195 37783 ft 513 kts 154°
2026-05-07 19:00 -33.56926 -60.32013 37199 ft 513 kts 154°
2026-05-07 19:00 -33.59989 -60.29865 36632 ft 513 kts 154°
2026-05-07 19:00 -33.63050 -60.27718 36068 ft 513 kts 154°
2026-05-07 19:00 -33.66177 -60.25523 35491 ft 514 kts 154°
2026-05-07 19:01 -33.69245 -60.23367 34926 ft 515 kts 154°
2026-05-07 19:01 -33.72411 -60.21140 34348 ft 517 kts 154°
2026-05-07 19:01 -33.75481 -60.18980 33783 ft 518 kts 154°
2026-05-07 19:01 -33.78585 -60.16794 33213 ft 520 kts 154°
2026-05-07 19:02 -33.81659 -60.14537 32598 ft 525 kts 148°
2026-05-07 19:02 -33.84456 -60.11667 31998 ft 531 kts 136°
2026-05-07 19:02 -33.86718 -60.08141 31447 ft 534 kts 126°
2026-05-07 19:02 -33.88777 -60.04452 30874 ft 534 kts 124°
2026-05-07 19:03 -33.90810 -60.00806 30283 ft 525 kts 124°
2026-05-07 19:03 -33.92835 -59.97180 29681 ft 516 kts 124°
2026-05-07 19:03 -33.94825 -59.93612 29111 ft 511 kts 124°
2026-05-07 19:03 -33.96796 -59.90075 28544 ft 505 kts 124°
2026-05-07 19:04 -33.98707 -59.86643 27994 ft 500 kts 124°
2026-05-07 19:04 -34.00652 -59.83147 27435 ft 495 kts 123°
2026-05-07 19:04 -34.02555 -59.79723 26889 ft 490 kts 123°
2026-05-07 19:04 -34.04442 -59.76323 26348 ft 484 kts 123°
2026-05-07 19:05 -34.06316 -59.72945 25811 ft 479 kts 123°
2026-05-07 19:05 -34.08144 -59.69646 25288 ft 474 kts 123°
2026-05-07 19:05 -34.09956 -59.66373 24769 ft 469 kts 123°
2026-05-07 19:05 -34.11747 -59.63135 24248 ft 465 kts 123°
2026-05-07 19:06 -34.13538 -59.59896 23733 ft 460 kts 123°
2026-05-07 19:06 -34.17032 -59.53565 22731 ft 451 kts 123°
2026-05-07 19:06 -34.18768 -59.50415 22233 ft 446 kts 123°
2026-05-07 19:07 -34.20475 -59.47316 21743 ft 441 kts 122°
2026-05-07 19:07 -34.22156 -59.44245 21258 ft 437 kts 122°
2026-05-07 19:07 -34.23766 -59.41213 20785 ft 433 kts 121°
2026-05-07 19:07 -34.25380 -59.38156 20308 ft 428 kts 121°
2026-05-07 19:08 -34.26973 -59.35131 19836 ft 424 kts 121°
2026-05-07 19:08 -34.28547 -59.32142 19366 ft 420 kts 121°
2026-05-07 19:08 -34.30124 -59.29143 18898 ft 416 kts 121°
2026-05-07 19:08 -34.31657 -59.26227 18444 ft 412 kts 121°
2026-05-07 19:09 -34.33196 -59.23297 17988 ft 408 kts 121°
2026-05-07 19:09 -34.34716 -59.20401 17537 ft 404 kts 121°
2026-05-07 19:09 -34.36213 -59.17545 17093 ft 400 kts 121°
2026-05-07 19:09 -34.37696 -59.14715 16653 ft 397 kts 121°
2026-05-07 19:10 -34.39172 -59.11895 16215 ft 393 kts 121°
2026-05-07 19:10 -34.40625 -59.09116 15783 ft 390 kts 121°
2026-05-07 19:10 -34.42067 -59.06358 15354 ft 386 kts 121°
2026-05-07 19:10 -34.43501 -59.03612 14928 ft 383 kts 121°
2026-05-07 19:11 -34.44922 -59.00889 14505 ft 381 kts 121°
2026-05-07 19:11 -34.46333 -58.98181 14085 ft 378 kts 122°
2026-05-07 19:11 -34.47749 -58.95464 13663 ft 375 kts 122°
2026-05-07 19:11 -34.49128 -58.92816 13252 ft 372 kts 122°
2026-05-07 19:12 -34.50509 -58.90162 12840 ft 369 kts 122°
2026-05-07 19:12 -34.51863 -58.87558 12437 ft 365 kts 122°
2026-05-07 19:12 -34.53213 -58.84961 12034 ft 361 kts 122°
2026-05-07 19:12 -34.54526 -58.82431 11642 ft 359 kts 123°
2026-05-07 19:13 -34.55794 -58.79878 11233 ft 357 kts 116°
2026-05-07 19:13 -34.56686 -58.77221 10878 ft 356 kts 112°
2026-05-07 19:13 -34.57293 -58.75241 10596 ft 353 kts 110°
2026-05-07 19:14 -34.58785 -58.69987 9810 ft 295 kts 109°
2026-05-07 19:14 -34.59440 -58.67625 9474 ft 293 kts 109°
2026-05-07 19:14 -34.60083 -58.65303 9170 ft 293 kts 109°
2026-05-07 19:14 -34.60728 -58.62966 8855 ft 292 kts 109°
2026-05-07 19:15 -34.61376 -58.60585 8529 ft 290 kts 109°
2026-05-07 19:15 -34.61998 -58.58262 8194 ft 291 kts 109°
2026-05-07 19:15 -34.62624 -58.55918 7516 ft 289 kts 109°
2026-05-07 19:15 -34.63234 -58.53630 6770 ft 287 kts 109°
2026-05-07 19:16 -34.63746 -58.51712 6183 ft 284 kts 109°
2026-05-07 19:16 -34.64410 -58.49217 5477 ft 282 kts 109°
2026-05-07 19:16 -34.65015 -58.46945 4823 ft 282 kts 108°
2026-05-07 19:16 -34.65552 -58.44923 4273 ft 280 kts 110°
2026-05-07 19:17 -34.66103 -58.42856 3699 ft 273 kts 109°
2026-05-07 19:17 -34.66680 -58.40670 3080 ft 267 kts 110°
2026-05-07 19:17 -34.67120 -58.38521 2413 ft 265 kts 93°
2026-05-07 19:17 -34.66799 -58.36427 1980 ft 245 kts 66°
2026-05-07 19:18 -34.65770 -58.34961 1980 ft 209 kts 33°
2026-05-07 19:18 -34.64691 -58.34052 1677 ft 200 kts 32°
2026-05-07 19:18 -34.63557 -58.33118 1407 ft 181 kts 33°
2026-05-07 19:18 -34.62460 -58.32389 1215 ft 182 kts 17°
2026-05-07 19:19 -34.61241 -58.32295 928 ft 166 kts 352°
2026-05-07 19:19 -34.60244 -58.32682 720 ft 154 kts 322°
2026-05-07 19:19 -34.59623 -58.33673 534 ft 157 kts 293°
2026-05-07 19:19 -34.59224 -58.34875 659 ft 155 kts 290°
2026-05-07 19:20 -34.58828 -58.36094 702 ft 160 kts 292°
2026-05-07 19:20 -34.58368 -58.37219 593 ft 151 kts 298°
2026-05-07 19:20 -34.57867 -58.38112 524 ft 115 kts 301°
2026-05-07 19:20 -34.57421 -58.38913 316 ft 110 kts 302°
2026-05-07 19:21 -34.56981 -58.39668 232 ft 107 kts 299°
2026-05-07 19:21 -34.56556 -58.40439 53 ft 123 kts 297°
2026-05-07 19:21 -34.56124 -58.41192 30 ft 97 kts 300°
2026-05-07 19:21 -34.55865 -58.41679 27 ft 35 kts 304°
2026-05-07 19:22 -34.55748 -58.41886 27 ft 14 kts 306°
2026-05-07 19:22 -34.55676 -58.41872 27 ft 15 kts 89°
2026-05-07 19:22 -34.55722 -58.41764 27 ft 16 kts 121°
2026-05-07 19:22 -34.55776 -58.41642 27 ft 13 kts 118°
2026-05-07 19:23 -34.55824 -58.41529 27 ft 16 kts 116°
2026-05-07 19:23 -34.55877 -58.41403 27 ft 19 kts 116°
2026-05-07 19:23 -34.55954 -58.41318 27 ft 15 kts 198°
2026-05-07 19:23 -34.56052 -58.41393 27 ft 15 kts 214°
2026-05-07 19:24 -34.56126 -58.41452 27 ft 9 kts 213°
2026-05-07 19:24 -34.56187 -58.41485 27 ft 8 kts 147°
2026-05-07 19:24 -34.56230 -58.41416 27 ft 11 kts 125°
2026-05-07 19:24 -34.56283 -58.41322 27 ft 14 kts 123°
2026-05-07 19:25 -34.56324 -58.41247 27 ft 8 kts 123°
2026-05-07 19:25 -34.56327 -58.41194 27 ft 4 kts 42°
2026-05-07 19:25 -34.56310 -58.41157 27 ft 5 kts 97°
2026-05-07 19:25 -34.56327 -58.41131 27 ft 3 kts 165°
2026-05-07 19:26 -34.56340 -58.41140 27 ft 0 kts 216°